Vorticity
6 5 7 6 7 8 9 9 7 8 8 9 12 14 12 12 11 17 21 18 8 13 11 11 13 7 12 10 6 20 -36 38 -5 14 8 -3 23 19 10 9 13 -20 -8 1 12
5 6 7 6 6 8 9 10 8 9 9 13 12 10 9 9 11 14 32 14 17 16 18 11 7 13 19 9 11 -10 40 11 3 30 2 6 2 -6 5 15 17 -5 2 2 -2
5 6 7 6 7 8 10 8 8 9 12 13 11 10 10 11 17 -1 12 19 24 19 19 21 10 4 14 13 14 22 0 36 -3 -4 14 2 12 16 10 12 9 6 -8 -3 2
5 6 7 7 8 10 9 8 9 9 15 11 11 12 12 11 26 2 1 2 -11 5 15 29 9 1 1 6 -1 15 15 -3 8 25 11 26 7 14 24 -4 31 18 4 -3 12
5 6 7 7 9 9 7 9 8 13 12 13 13 10 12 16 22 32 4 23 -1 -2 2 23 13 13 4 11 21 4 4 3 22 -6 8 -28 38 19 12 6 -0 14 14 12 4
6 7 8 8 9 8 9 9 11 13 13 13 8 13 13 19 7 -2 12 10 26 23 4 4 22 11 9 -4 3 14 31 6 10 14 32 -28 10 -9 -22 5 1 10 16 11 14
7 7 8 8 9 9 10 9 13 15 14 6 21 23 18 10 15 5 9 4 19 29 29 -6 6 10 14 14 14 -1 2 15 18 -8 14 18 -1 37 22 10 6 8 -2 5 3
7 7 8 9 8 9 11 10 14 16 8 24 25 14 16 0 -0 -1 -3 15 18 5 24 24 6 12 1 6 1 15 -6 17 12 2 17 10 17 17 -1 7 18 17 14 28 0
7 8 8 8 8 10 8 15 14 20 20 25 5 23 5 5 -7 5 6 13 18 16 3 14 33 13 12 13 -5 14 17 10 21 31 -19 12 11 21 26 -3 2 19 7 20 25
9 10 8 8 9 9 11 10 14 9 19 17 -8 18 -9 9 12 14 23 2 11 9 4 -5 26 31 15 13 3 -8 32 -5 10 12 14 1 -8 11 23 -8 19 5 2 7 28
10 8 8 9 12 9 13 15 13 6 31 12 4 -3 11 15 23 10 7 13 12 23 8 22 12 -5 43 47 9 -24 -9 22 4 9 14 5 -4 2 28 -12 4 -39 24 6 21
6 7 11 11 11 14 11 16 10 8 45 -15 8 18 11 2 14 0 8 16 3 10 10 8 -4 26 14 13 40 11 -3 16 26 14 6 19 11 5 10 -0 19 14 -13 23 7
4 4 7 11 17 14 15 11 11 11 37 -4 5 14 9 5 7 9 14 4 13 13 13 11 -7 -21 31 7 -1 38 -11 -3 5 14 29 11 13 15 9 20 -24 30 6 44 2
3 2 5 11 18 16 11 14 8 23 15 -3 1 -4 1 5 35 13 5 21 3 8 11 32 27 12 7 27 8 -0 30 4 6 -9 37 11 27 20 9 9 37 13 12 -54 19
4 5 5 5 16 19 18 16 14 30 22 18 -1 -4 9 19 3 17 10 10 26 13 -3 -0 7 10 23 7 16 -5 -1 33 8 5 15 15 -13 23 33 10 8 -5 11 -14 35
2 5 6 7 16 16 19 12 33 14 -17 24 7 13 21 3 26 7 13 5 15 12 25 14 28 -1 4 21 6 14 -15 35 -6 11 20 35 -42 53 3 9 24 2 39 -4 24
3 5 12 7 15 27 14 24 14 9 -3 -11 -0 6 13 3 7 -3 18 53 2 30 -5 14 28 32 9 6 21 5 29 12 13 12 0 49 23 -42 24 -2 -1 26 12 9 4
7 5 8 8 23 24 12 29 13 -15 1 14 22 17 -8 3 12 11 3 8 -12 5 54 15 7 21 34 6 5 3 -13 -2 6 8 24 7 20 45 18 38 14 22 45 9 10
7 6 9 7 23 18 28 10 1 8 -0 6 21 10 -1 -4 28 22 16 3 4 -9 30 20 19 38 -21 15 -1 31 3 5 -7 -2 23 1 6 -8 15 -0 16 7 33 10 13
5 10 12 15 19 10 21 12 16 2 10 14 11 -1 -1 2 13 21 16 -3 5 -3 5 12 14 20 30 18 22 20 7 10 12 13 7 49 16 -18 -2 -1 15 7 11 1 10
6 23 9 26 10 20 13 9 10 7 11 10 8 7 7 1 27 13 -6 29 -12 6 20 23 6 -22 23 15 11 8 14 -13 9 -10 4 13 6 62 16 32 -6 -4 26 4 13
8 36 14 31 29 19 5 10 6 2 3 15 14 3 -0 4 10 21 -2 17 9 15 17 20 29 9 3 13 17 50 -12 13 -18 16 9 19 4 32 17 6 27 23 3 13 10
9 22 20 21 21 18 15 11 13 8 11 3 24 3 1 2 29 -3 -8 8 -18 49 1 -4 -4 25 25 33 24 -0 30 -1 -9 -15 16 13 9 6 29 6 15 6 4 8 11
17 24 10 5 16 13 13 10 7 12 25 -4 23 5 -2 8 5 -20 25 -23 16 38 17 19 12 3 -18 -15 5 9 16 9 -8 10 5 12 -10 13 16 20 23 16 20 3 17
21 2 11 2 9 13 11 5 8 3 -3 27 7 -12 2 6 10 20 -9 7 15 -18 -12 21 3 2 11 31 22 35 14 6 10 -10 20 15 -2 15 19 20 24 8 38 5 0
31 18 18 8 15 17 -6 7 6 10 27 1 6 -1 3 9 9 5 4 12 14 13 19 11 -15 5 28 48 24 25 21 10 13 -13 32 24 -0 11 7 15 7 18 16 6 30
19 18 10 4 16 5 8 12 -3 8 14 9 15 14 17 14 12 19 19 14 19 20 12 9 4 13 3 14 31 13 5 19 3 13 -26 11 12 28 20 9 17 22 10 14 16
Height
3096 3091 3086 3081 3076 3069 3063 3057 3051 3045 3039 3033 3027 3023 3019 3015 3011 3011 3010 3010 3007 3010 3014 3017 3021 3025 3028 3031 3036 3041 3041 3040 3043 3051 3057 3068 3069 3070 3079 3082 3083 3088 3092 3093 3096
3092 3088 3082 3076 3071 3064 3059 3052 3045 3039 3034 3028 3022 3017 3013 3009 3006 3004 3003 3001 3001 3003 3007 3011 3016 3021 3024 3027 3030 3033 3031 3031 3043 3050 3058 3063 3062 3067 3072 3075 3078 3081 3087 3091 3094
3088 3083 3077 3071 3066 3059 3054 3047 3040 3033 3028 3022 3016 3012 3008 3004 3003 3000 3000 2998 2999 3000 3001 3004 3010 3018 3020 3023 3025 3027 3022 3033 3039 3047 3053 3054 3057 3063 3065 3070 3071 3074 3082 3088 3092
3085 3080 3073 3068 3063 3056 3048 3042 3035 3029 3023 3017 3011 3007 3003 3000 3004 2996 2997 2995 2997 2998 2997 3000 3004 3008 3012 3016 3022 3024 3025 3031 3034 3042 3044 3044 3047 3054 3061 3066 3070 3073 3077 3084 3089
3082 3076 3070 3065 3059 3051 3043 3037 3031 3024 3019 3013 3008 3004 3000 2997 2995 2995 2993 2992 2991 2995 2996 2996 2998 3005 3007 3013 3018 3016 3022 3028 3031 3036 3040 3041 3043 3048 3054 3065 3067 3069 3073 3079 3085
3080 3073 3067 3061 3055 3048 3041 3033 3027 3020 3015 3010 3005 3001 2997 2996 2994 2994 2991 2988 2990 2991 2993 2994 2997 2999 3002 3008 3013 3016 3020 3023 3027 3031 3035 3035 3040 3046 3050 3058 3062 3065 3067 3074 3080
3077 3071 3064 3058 3051 3044 3038 3029 3023 3017 3011 3006 3001 2997 2995 2995 2995 2993 2990 2988 2987 2987 2988 2990 2992 2997 2999 3004 3009 3012 3015 3020 3021 3025 3030 3036 3038 3031 3045 3049 3057 3062 3062 3071 3076
3075 3068 3061 3054 3046 3039 3034 3026 3019 3013 3008 3003 2999 2996 2994 2996 2995 2992 2991 2989 2987 2986 2986 2985 2989 2993 2996 3001 3004 3008 3013 3013 3016 3022 3022 3027 3021 3032 3039 3043 3053 3057 3058 3065 3071
3072 3065 3058 3050 3043 3037 3030 3023 3016 3011 3006 3003 3000 2997 2998 2996 2995 2992 2989 2987 2987 2987 2985 2983 2984 2989 2993 2998 3004 3003 3004 3007 3014 3017 3022 3022 3018 3027 3034 3039 3044 3053 3055 3059 3063
3070 3063 3055 3048 3041 3033 3027 3020 3014 3010 3004 3001 3000 3002 3000 2997 2993 2989 2987 2985 2984 2984 2984 2983 2983 2985 2989 2993 2994 2998 3000 3004 3006 3014 3019 3018 3020 3023 3029 3032 3033 3040 3053 3053 3058
3069 3061 3054 3046 3038 3030 3022 3016 3014 3006 3002 3000 2999 2997 2996 2995 2992 2989 2987 2986 2983 2983 2984 2982 2981 2982 2986 2989 2991 2998 3000 3001 3004 3010 3014 3013 3017 3019 3027 3030 3029 3035 3046 3049 3053
3067 3060 3052 3044 3036 3027 3020 3012 3007 3005 3000 2999 2997 2994 2994 2991 2989 2988 2986 2985 2984 2983 2984 2984 2980 2981 2984 2987 2989 2993 2995 2996 3001 3006 3009 3012 3013 3018 3022 3023 3028 3029 3031 3043 3046
3065 3059 3052 3042 3033 3025 3017 3012 3008 3003 3001 2999 2997 2994 2992 2991 2988 2987 2986 2983 2981 2980 2981 2980 2979 2981 2982 2984 2986 2988 2990 2993 2997 3001 3003 3007 3010 3013 3015 3020 3024 3028 3028 3023 3042
3064 3058 3049 3040 3031 3023 3017 3012 3008 3004 3002 3006 3003 2998 2995 2992 2990 2987 2985 2983 2980 2979 2978 2977 2976 2978 2980 2981 2984 2985 2988 2992 2996 2998 2999 3003 3003 3006 3010 3014 3018 3024 3024 3027 3035
3063 3056 3047 3035 3030 3024 3018 3011 3006 3004 3004 3006 3003 2998 2995 2995 2992 2987 2984 2981 2978 2977 2980 2977 2974 2975 2975 2979 2983 2984 2985 2989 2991 2988 2996 2998 3003 2999 3004 3008 3012 3017 3026 3028 3028
3061 3054 3045 3036 3026 3018 3014 3010 3006 3005 3005 3006 3003 2997 2994 2994 2992 2988 2985 2980 2977 2975 2974 2971 2971 2972 2973 2976 2981 2983 2984 2984 2984 2991 2991 2993 2998 2995 2995 2996 3005 3013 3020 3028 3028
3060 3053 3042 3034 3027 3020 3014 3008 3006 3005 3008 3005 3000 2996 2996 2993 2991 2988 2984 2979 2979 2976 2973 2969 2966 2966 2970 2974 2978 2980 2983 2985 2992 2992 2986 2988 2991 2990 2989 2995 3001 3006 3016 3023 3028
3058 3050 3042 3033 3023 3017 3012 3008 3008 3010 3008 3005 3001 2998 2997 2994 2991 2987 2986 2983 2981 2979 2973 2970 2967 2966 2966 2969 2972 2975 2981 2980 2992 2991 2984 2989 2988 2984 2991 2993 2999 3004 3011 3021 3027
3054 3048 3039 3030 3023 3016 3013 3010 3012 3010 3008 3004 3000 2999 2999 2997 2994 2987 2985 2985 2984 2981 2981 2973 2967 2963 2967 2967 2972 2974 2978 2981 2985 2982 2985 2983 2986 2988 2989 2994 2998 3003 3008 3014 3022
3052 3043 3034 3027 3021 3017 3014 3013 3012 3009 3006 3004 3004 3002 3000 2997 2993 2989 2987 2987 2985 2983 2980 2975 2968 2963 2964 2968 2970 2972 2978 2982 2987 2986 2981 2978 2984 2987 2987 2992 2997 3002 3006 3012 3017
3050 3040 3034 3025 3021 3016 3013 3011 3009 3008 3006 3004 3003 3003 3002 2999 2995 2991 2990 2989 2987 2981 2980 2974 2972 2966 2964 2965 2967 2972 2973 2977 2983 2983 2977 2976 2982 2984 2987 2990 2994 2998 3003 3007 3014
3046 3039 3032 3023 3020 3014 3012 3011 3011 3008 3008 3006 3004 3003 3001 2999 2993 2992 2991 2991 2987 2981 2976 2974 2970 2963 2962 2962 2966 2969 2972 2974 2978 2981 2976 2972 2984 2982 2984 2987 2992 2998 3003 3006 3012
3041 3034 3028 3022 3019 3015 3014 3012 3010 3009 3008 3006 3003 3002 3002 2999 2995 2992 2990 2988 2984 2979 2976 2974 2970 2965 2957 2963 2965 2967 2970 2973 2976 2977 2976 2977 2984 2983 2985 2987 2991 2995 3001 3005 3009
3039 3033 3025 3020 3018 3015 3013 3012 3009 3007 3006 3004 3002 3002 2999 2996 2995 2989 2986 2984 2981 2977 2976 2974 2970 2968 2966 2965 2965 2966 2967 2970 2975 2977 2979 2980 2982 2982 2983 2986 2989 2993 2996 3003 3005
3036 3032 3024 3021 3018 3016 3015 3012 3008 3005 3004 3002 3001 3000 2999 2993 2987 2985 2984 2980 2978 2976 2975 2972 2967 2965 2961 2957 2958 2963 2966 2970 2973 2977 2981 2980 2979 2983 2984 2985 2988 2992 2995 3001 3005
3035 3031 3025 3021 3019 3016 3014 3010 3008 3006 3004 3001 2999 2996 2994 2992 2990 2982 2981 2981 2976 2974 2972 2971 2966 2961 2953 2951 2954 2960 2965 2969 2975 2977 2980 2975 2978 2983 2982 2983 2985 2989 2994 2999 3003
3030 3027 3024 3021 3018 3016 3014 3010 3007 3005 3002 3000 2996 2992 2989 2987 2984 2981 2979 2977 2975 2973 2971 2969 2966 2962 2955 2953 2956 2962 2965 2967 2971 2974 2977 2976 2982 2981 2982 2983 2988 2989 2990 2995 3001